Zurück zum Katalog

ONEWEB-0580

AktivKommunikationPO
NORAD 54648·PAYLOAD·🇬🇧 United Kingdom

Gestartet Dec 8, 2022 von Cape Canaveral Space Force Station

Loading…

Nächste Überflüge (nächste 24 Stunden)

TLE

AktuellSource: CelesTrak SupGP

Epoche: Sep 14, 2026, 13:41 UTC

1 54648C 22166G   26257.57032824 -.00002880  00000+0 -69813-2 0  2572
2 54648  87.9273 226.1871 0002270  93.0725 305.1113 13.21826878    10

Verfolge ONEWEB-0580 in Echtzeit mit AllMySat

Download on the App Store